TimeEDT,TemperatureF,Dew PointF,Humidity,Sea Level PressureIn,VisibilityMPH,Wind Direction,Wind SpeedMPH,Gust SpeedMPH,PrecipitationIn,Events,Conditions,WindDirDegrees,DateUTC
12:51 AM,46.9,39.9,77,29.95,10.0,WSW,10.4,-,N/A,,Mostly Cloudy,240,2012-10-21 04:51:00
1:51 AM,44.1,39.0,82,29.96,10.0,WSW,9.2,-,N/A,,Partly Cloudy,250,2012-10-21 05:51:00
2:51 AM,45.0,39.9,82,29.98,10.0,WSW,8.1,-,N/A,,Mostly Cloudy,250,2012-10-21 06:51:00
3:51 AM,45.0,39.9,82,30.00,10.0,WSW,9.2,-,N/A,,Overcast,250,2012-10-21 07:51:00
4:51 AM,45.0,39.9,82,30.02,10.0,West,8.1,-,N/A,,Mostly Cloudy,270,2012-10-21 08:51:00
5:51 AM,44.1,39.0,82,30.04,10.0,West,6.9,-,N/A,,Mostly Cloudy,260,2012-10-21 09:51:00
6:51 AM,42.1,39.0,89,30.07,10.0,WSW,8.1,-,N/A,,Mostly Cloudy,240,2012-10-21 10:51:00
7:51 AM,39.9,37.0,89,30.09,8.0,SW,4.6,-,N/A,,Scattered Clouds,220,2012-10-21 11:51:00
8:51 AM,43.0,39.9,89,30.10,10.0,WSW,3.5,-,N/A,,Scattered Clouds,240,2012-10-21 12:51:00
9:51 AM,48.0,41.0,77,30.11,10.0,WSW,6.9,-,N/A,,Partly Cloudy,250,2012-10-21 13:51:00
10:51 AM,52.0,42.1,69,30.13,10.0,WSW,6.9,-,N/A,,Scattered Clouds,240,2012-10-21 14:51:00
11:51 AM,55.0,42.1,62,30.12,10.0,WNW,5.8,-,N/A,,Mostly Cloudy,290,2012-10-21 15:51:00
12:34 PM,53.6,39.2,58,30.11,10.0,West,6.9,-,N/A,,Mostly Cloudy,270,2012-10-21 16:34:00
12:51 PM,54.0,39.0,57,30.12,10.0,West,9.2,-,N/A,,Mostly Cloudy,270,2012-10-21 16:51:00
1:51 PM,55.0,39.9,57,30.11,10.0,WSW,11.5,-,N/A,,Mostly Cloudy,250,2012-10-21 17:51:00
2:51 PM,55.9,37.9,51,30.10,10.0,WNW,6.9,-,N/A,,Mostly Cloudy,300,2012-10-21 18:51:00
3:51 PM,57.9,37.9,47,30.10,10.0,WNW,4.6,-,N/A,,Mostly Cloudy,300,2012-10-21 19:51:00
4:51 PM,59.0,37.0,44,30.10,10.0,West,4.6,-,N/A,,Scattered Clouds,270,2012-10-21 20:51:00
5:51 PM,57.0,37.0,47,30.10,10.0,WSW,4.6,-,N/A,,Partly Cloudy,250,2012-10-21 21:51:00
6:51 PM,50.0,37.0,61,30.11,10.0,SSW,3.5,-,N/A,,Partly Cloudy,210,2012-10-21 22:51:00
7:51 PM,46.9,36.0,66,30.12,10.0,South,3.5,-,N/A,,Partly Cloudy,190,2012-10-21 23:51:00
8:51 PM,48.0,37.0,66,30.14,10.0,Calm,Calm,-,N/A,,Clear,0,2012-10-22 00:51:00
9:51 PM,45.0,37.0,74,30.14,10.0,SSW,4.6,-,N/A,,Clear,200,2012-10-22 01:51:00
10:51 PM,41.0,35.1,79,30.14,10.0,Calm,Calm,-,N/A,,Partly Cloudy,0,2012-10-22 02:51:00
11:51 PM,39.0,35.1,86,30.15,10.0,Calm,Calm,-,N/A,,Partly Cloudy,0,2012-10-22 03:51:00